TimeEST,TemperatureF,Dew PointF,Humidity,Sea Level PressureIn,VisibilityMPH,Wind Direction,Wind SpeedMPH,Gust SpeedMPH,PrecipitationIn,Events,Conditions,WindDirDegrees,DateUTC
12:54 AM,46.9,30.9,54,30.05,10.0,Variable,4.6,-,N/A,,Overcast,0,2012-11-04 04:54:00
1:54 AM,46.9,30.0,52,30.05,10.0,NW,4.6,-,N/A,,Overcast,320,2012-11-04 05:54:00
1:54 AM,46.0,30.9,56,30.05,10.0,Variable,3.5,-,N/A,,Overcast,0,2012-11-04 06:54:00
2:54 AM,45.0,30.9,58,30.04,10.0,WNW,3.5,-,N/A,,Overcast,300,2012-11-04 07:54:00
3:54 AM,43.0,30.9,62,30.04,10.0,Calm,Calm,-,N/A,,Partly Cloudy,0,2012-11-04 08:54:00
4:54 AM,41.0,30.9,67,30.05,10.0,Calm,Calm,-,N/A,,Mostly Cloudy,0,2012-11-04 09:54:00
5:54 AM,39.0,30.9,73,30.05,10.0,Calm,Calm,-,N/A,,Partly Cloudy,0,2012-11-04 10:54:00
6:54 AM,36.0,30.9,82,30.07,10.0,Calm,Calm,-,N/A,,Clear,0,2012-11-04 11:54:00
7:54 AM,41.0,32.0,70,30.09,10.0,West,3.5,-,N/A,,Clear,260,2012-11-04 12:54:00
8:54 AM,46.0,32.0,58,30.08,10.0,NW,4.6,-,N/A,,Partly Cloudy,310,2012-11-04 13:54:00
9:54 AM,46.9,30.0,52,30.07,10.0,WNW,8.1,-,N/A,,Mostly Cloudy,290,2012-11-04 14:54:00
10:54 AM,48.9,30.0,48,30.05,10.0,NW,6.9,-,N/A,,Partly Cloudy,310,2012-11-04 15:54:00
11:54 AM,50.0,32.0,50,30.03,10.0,Variable,6.9,18.4,N/A,,Partly Cloudy,0,2012-11-04 16:54:00
12:54 PM,51.1,30.9,46,30.01,10.0,Variable,4.6,-,N/A,,Partly Cloudy,0,2012-11-04 17:54:00
1:54 PM,51.1,30.9,46,30.00,10.0,WNW,6.9,-,N/A,,Partly Cloudy,300,2012-11-04 18:54:00
2:54 PM,50.0,30.0,46,30.00,10.0,WNW,10.4,-,N/A,,Clear,290,2012-11-04 19:54:00
3:54 PM,48.9,30.0,48,30.01,10.0,NW,6.9,-,N/A,,Partly Cloudy,320,2012-11-04 20:54:00
4:54 PM,46.9,30.9,54,30.02,10.0,NNW,4.6,-,N/A,,Clear,330,2012-11-04 21:54:00
5:54 PM,44.1,30.9,60,30.03,10.0,North,3.5,-,N/A,,Clear,360,2012-11-04 22:54:00
6:54 PM,41.0,30.0,65,30.05,10.0,NNE,4.6,-,N/A,,Clear,20,2012-11-04 23:54:00
7:54 PM,39.9,28.9,65,30.05,10.0,Calm,Calm,-,N/A,,Clear,0,2012-11-05 00:54:00
8:54 PM,39.0,28.9,67,30.05,10.0,Calm,Calm,-,N/A,,Clear,0,2012-11-05 01:54:00
9:54 PM,39.0,28.0,65,30.05,10.0,WNW,3.5,-,N/A,,Clear,300,2012-11-05 02:54:00
10:54 PM,37.9,28.0,68,30.03,10.0,Variable,3.5,-,N/A,,Clear,0,2012-11-05 03:54:00